Regional Weather Roundup
Issued by NWS

Home | Current Version | Previous Version | Graphics & Text | Print | Product List | Glossary Off
Versions: 1 2 3 4 5 6 7 8 9 10 11 12 13 14 15 16 17 18 19 20 21 22 23 24 25 26 27 28 29 30 31 32 33 34 35 36 37 38 39 40 41 42 43 44 45 46 47 48 49 50

000
ASUS43 KMKX 152100
RWRWI

WISCONSIN REGIONAL WEATHER ROUNDUP
NATIONAL WEATHER SERVICE MILWAUKEE/SULLIVAN WI
300 PM CST FRI DEC 15 2017

NOTE: "FAIR" INDICATES FEW OR NO CLOUDS BELOW 12,000 FEET WITH NO
SIGNIFICANT WEATHER AND/OR OBSTRUCTIONS TO VISIBILITY.

WIZ001-002-006>008-014>016-023>028-152200-
NORTHWEST WISCONSIN

CITY           SKY/WX    TMP DP  RH WIND       PRES   REMARKS
SUPERIOR ARPT  CLOUDY    17   6  60 W3        29.81F
ASHLAND        MOCLDY    13   4  67 S3        29.81S
HAYWARD        CLEAR     13   5  70 S6        29.77F WCI   4
SIREN          CLOUDY    19   9  64 W7        29.79F WCI  10
CUMBERLAND     CLOUDY    19  10  68 SW3       29.78F
RICE LAKE      CLOUDY    18  10  70 CALM      29.81F
CHETEK         CLOUDY    19  10  68 CALM      29.81S
LADYSMITH      PTCLDY    17   6  63 SW5       29.80S WCI   9
EAU CLAIRE     NOT AVBL
MENOMONIE      CLOUDY    24  16  73 NW5       29.81F WCI  18
NEW RICHMOND   CLOUDY    22  13  68 CALM      29.79F
OSCEOLA        CLOUDY    22  13  68 CALM      29.83F
$$

WIZ003>005-009-010-017-018-152200-
NORTH CENTRAL WISCONSIN

CITY           SKY/WX    TMP DP  RH WIND       PRES   REMARKS
MANITOWISH WTR FLURRIES  12   5  72 CALM      29.73F
ARBOR VITAE    MOCLDY    14   6  72 NW3       29.73F
WOODRUFF       MOCLDY    14   6  72 NW3       29.73F
RHINELANDER    CLOUDY    15   6  67 W6        29.74S WCI   6
EAGLE RIVER    CLOUDY    13   4  65 W12       29.73R WCI   0
LAND O LAKES   CLOUDY    15   6  69 W6        29.74R WCI   6
PHILLIPS       CLOUDY    15   6  68 W5        29.75F WCI   7
TOMAHAWK       CLOUDY    15   6  67 W5        29.77S WCI   7
MEDFORD        MOCLDY    14   6  68 CALM      29.76F
MERRILL        PTCLDY    16   7  67 W5        29.79S WCI   9
$$

WIZ029-030-035-036-043>047-152200-
CENTRAL WISCONSIN

CITY           SKY/WX    TMP DP  RH WIND       PRES   REMARKS
WAUSAU         CLEAR     15   6  67 W8        29.77F WCI   4
MOSINEE        PTCLDY    18   9  68 W6        29.79S WCI   9
MARSHFIELD     CLOUDY    19  11  70 NW7       29.78S WCI  10
STEVENS POINT  PTCLDY    18   8  65 W6        29.81S WCI  10
WAUPACA        CLEAR     25  10  54 W10G16    29.82S WCI  15
WAUTOMA        CLOUDY    25  15  66 W8        29.82S WCI  16
WISC RAPIDS    CLOUDY    22  12  65 NW8       29.82S WCI  12
CAMP DOUGLAS   NOT AVBL
$$

WIZ011>013-019>022-031-037>040-048>050-152200-
NORTHEAST WISCONSIN

CITY           SKY/WX    TMP DP  RH WIND       PRES   REMARKS
ANTIGO         MOCLDY    14   6  70 NW10      29.76R WCI   1
SHAWANO        PTCLDY    20   9  60 W7        29.80S WCI  11
OCONTO         CLEAR     19   8  60 W12G20    29.80S WCI   7
STURGEON BAY   PTCLDY    21  10  62 W13       29.79R WCI   9
GREEN BAY      MOCLDY    20   7  57 NW10      29.82S WCI   9
MANITOWOC      MOCLDY    22  11  62 W16       29.82S WCI   8
APPLETON       PTCLDY    21   7  53 W12       29.80S WCI   9
CLINTONVILLE   CLEAR     19   7  58 W10       29.82R WCI   8
OSHKOSH        CLEAR     23  12  62 W9        29.82S WCI  13
$$

WIZ032>034-041-042-053>061-152200-
SOUTHWEST WISCONSIN

CITY           SKY/WX    TMP DP  RH WIND       PRES   REMARKS
LA CROSSE      CLOUDY    32  26  78 S6        29.82F WCI  26
SPARTA         CLOUDY    29  23  78 W3        29.83R
VIROQUA        CLOUDY    30  28  92 CALM      29.80F
BOSCOBEL       FLURRIES  32  26  78 SW6       29.85F WCI  26
PRAIRIE DU CHI FLURRIES  33  26  76 SW3       29.84F
PLATTEVILLE    CLOUDY    32  28  88 SW8       29.85S WCI  24
$$

WIZ056-057-062-063-064-067-068-152200-
SOUTH CENTRAL WISCONSIN

CITY           SKY/WX    TMP DP  RH WIND       PRES   REMARKS
REEDSBURG      CLOUDY    30  22  73 SW9       29.82S WCI  21
BARABOO/DELLS  CLOUDY    30  21  68 W9        29.81S WCI  22
LONE ROCK      NOT AVBL
MINERAL POINT  FLURRIES  32  30  93 W9        29.82F WCI  24
MADISON        FLURRIES  30  22  72 VRB7      29.83F WCI  23
MIDDLETON      CLOUDY    32  24  72 W10       29.83F WCI  24
WATERTOWN      PTSUNNY   29  20  69 W7        29.83S WCI  22
MONROE         CLOUDY    30  25  80 W14G20    29.83F WCI  20
JANESVILLE     CLOUDY    32  25  74 SW17G23   29.85F WCI  21
$$

WIZ051-052-058>065-066-070>072-152200-
SOUTHEAST WISCONSIN

CITY           SKY/WX    TMP DP  RH WIND       PRES   REMARKS
MILWAUKEE      CLOUDY    30  18  60 W13G18    29.84F WCI  20
WAUKESHA       CLOUDY    25  18  74 W12       29.83F WCI  14
MILWAUKEE/TIMM CLOUDY    28  16  59 W13       29.84F WCI  18
RACINE         CLOUDY    30  19  63 W12G18    29.86S WCI  20
BURLINGTON     PTSUNNY   30  23  73 W10G17    29.84F WCI  21
KENOSHA        CLOUDY    31  20  63 SW16      29.85S WCI  20
FOND DU LAC    CLOUDY    25  12  58 NW9       29.82S WCI  15
SHEBOYGAN      CLEAR     23  12  62 W14       29.82S WCI  11
WEST BEND      CLOUDY    25  18  74 W13       29.82S WCI  13
JUNEAU         PTSUNNY   25  16  69 CALM      29.83F
$$

LSZ147-162-152200-
LAKE SUPERIOR

STATION/POSITION TIME  TEMP    WIND        PRES    WAVE
                       AIR SEA DIR/SP/G            HT/PER
                 (UTC) (F)     (DEG/KT/KT) (MB)    (FT/S)
DEVILS ISLAND    2000   16     250/  8/ 10 1010.6F
SAXON HARBOR     2030   17                 1009.5S
$$

LMZ867-665-643>646-152200-
LAKE MICHIGAN

STATION/POSITION TIME  TEMP    WIND        PRES    WAVE
                       AIR SEA DIR/SP/G            HT/PER
                 (UTC) (F)     (DEG/KT/KT) (MB)    (FT/S)
NORTHPORT PIER   2040   23     290/  7/ 12 1007.8S
KEWAUNEE LAKESHO 2030   21     290/ 11/ 15 1008.7S
SHEBOYGAN LAKESH 2000   24     280/ 12/ 14 1010.8F
PORT WASHINGTON  2030   26     270/  8/ 11 1011.5S
MILWAUKEE LAKESH 2030   29     270/  9/ 12   N/A
KENOSHA   LAKESH 2000   30     260/ 16/ 22 1011.2
$$

TC  - TEMPERATURE IN CELSIUS
VSB - VISIBILITY IN STATUTE MILES
WCI - WIND CHILL INDEX
HX  - HEAT INDEX





USA.gov is the U.S. government's official web portal to all federal, state and local government web resources and services.